METEOR-M 2

Last updated on Mon Jun 22 2026 00:02:46 GMT+0000 (Coordinated Universal Time)

1 40069U 14037A 26172.50978403 -.00000166 00000+0 -56554-4 0 9991 2 40069 98.5120 148.0953 0006595 33.6763 326.4832 14.21461368619931
UTC large
Height (km)
Speed (km/s)
/
Latitude / Longitude
Inclination (degrees)
Orbital Period (minutes)
Azimuth
Elevation
Range (km)
Doppler Factor

Next 0 passes for location: London (51.5072 / 0.1276)

No passes found over London.
METEOR-M 2